Location: Sihaung
(22.8641°N, 94.0549°E)
Time: 10:39:33
(UTC+00:00)

PSLV R/B - Pass Details

Date: 03 March 2021
Orbit: 567 x 598 km, 98.2° (Epoch: 16 April)

Event Time Altitude Azimuth Distance (km) Brightness Sun altitude
Rises 12:14:27 0° 10° (N) 2,776 7.3 -6.9°
Reaches altitude 10° 12:16:37 10° 10° (N) 1,872 6.4 -7.4°
Maximum altitude 12:20:40 81° 283° (WNW) 578 4.0 -8.3°
Drops below altitude 10° 12:24:40 10° 195° (SSW) 1,855 6.8 -9.2°
Sets 12:26:48 0° 195° (SSW) 2,748 7.6 -9.7°
